{"data":{"norad_id":65510,"intl_designator":"2025-198U","name":"STARLINK-35122","alt_names":[],"object_type":"PAYLOAD","status":"ACTIVE","operator":null,"country":"US","launch_date":"2025-09-05","launch_site_code":"AFETR","launch_vehicle":null,"mission":null,"orbit_class":"UNKNOWN","rcs_meters":null,"size_class":null,"mass_kg":null,"dimensions":null,"purposes":["comms"],"wikipedia_slug":null,"has_3d_model":false,"image_url":null,"decayed_at":null,"tle_current":{"epoch":"2026-09-20T21:52:07.019904Z","epoch_age_seconds":76467,"freshness":"FRESH","line1":"1 65510U 25198U   26263.91119236  .00021678  00000+0  65081-3 0  9999","line2":"2 65510  53.1580  79.6524 0003021  90.0331 270.1018 15.34401846 58576","mean_motion":15.34401846,"eccentricity":0.0003021,"inclination_deg":53.158,"raan_deg":79.6524,"arg_perigee_deg":90.0331,"mean_anomaly_deg":270.1018,"bstar":0.00065081,"rev_number":5857,"period_min":93.847645175474,"perigee_km":460.63113733254,"apogee_km":464.76436969062,"semimajor_km":6840.8347535116,"source":"CELESTRAK","updated_at":"2026-09-21T09:00:35.645008Z"}}}